GFSNIL_prec_pwat_132.txt.gz
Precipitable_Water
0.45 0.46 0.46 0.46 0.48 0.47 0.45 0.45 0.54 0.59 0.60 0.60 0.59 0.56 0.55 0.57 0.56 0.52 0.51 0.48 0.45 0.45
0.45 0.46 0.45 0.47 0.48 0.47 0.47 0.47 0.48 0.49 0.57 0.59 0.59 0.59 0.59 0.59 0.57 0.57 0.56 0.51 0.48 0.48
0.43 0.45 0.46 0.44 0.44 0.46 0.47 0.49 0.48 0.47 0.48 0.51 0.56 0.57 0.57 0.54 0.51 0.47 0.48 0.48 0.48 0.50
0.43 0.45 0.46 0.46 0.46 0.47 0.47 0.48 0.48 0.48 0.48 0.47 0.46 0.46 0.46 0.45 0.46 0.47 0.47 0.49 0.48 0.49
0.46 0.46 0.46 0.47 0.48 0.49 0.48 0.48 0.48 0.48 0.47 0.48 0.47 0.46 0.45 0.44 0.46 0.47 0.49 0.51 0.49 0.48
0.44 0.46 0.47 0.49 0.50 0.51 0.50 0.49 0.48 0.47 0.46 0.46 0.46 0.46 0.46 0.47 0.47 0.47 0.48 0.50 0.50 0.52
0.33 0.35 0.39 0.42 0.46 0.48 0.50 0.50 0.49 0.48 0.47 0.47 0.47 0.47 0.47 0.48 0.49 0.51 0.52 0.51 0.53 0.55
0.30 0.31 0.30 0.30 0.33 0.36 0.38 0.41 0.44 0.47 0.47 0.49 0.48 0.49 0.49 0.50 0.50 0.51 0.55 0.57 0.58 0.57
0.25 0.27 0.26 0.26 0.25 0.25 0.26 0.26 0.28 0.33 0.39 0.45 0.48 0.51 0.52 0.52 0.51 0.52 0.55 0.58 0.60 0.61
0.22 0.22 0.22 0.22 0.23 0.23 0.23 0.23 0.23 0.23 0.25 0.27 0.32 0.44 0.51 0.53 0.53 0.53 0.55 0.58 0.60 0.62
0.19 0.20 0.23 0.21 0.21 0.22 0.22 0.22 0.22 0.21 0.23 0.23 0.25 0.27 0.27 0.37 0.49 0.53 0.53 0.55 0.55 0.57
0.22 0.23 0.19 0.18 0.19 0.20 0.20 0.21 0.21 0.22 0.21 0.21 0.21 0.23 0.24 0.24 0.26 0.30 0.40 0.52 0.55 0.56
0.22 0.19 0.18 0.19 0.20 0.20 0.20 0.19 0.20 0.20 0.21 0.21 0.21 0.20 0.20 0.21 0.22 0.22 0.23 0.26 0.34 0.43
0.22 0.20 0.20 0.20 0.20 0.19 0.19 0.20 0.19 0.19 0.19 0.19 0.19 0.19 0.19 0.18 0.18 0.19 0.19 0.21 0.21 0.24

GFSNIL_prec_pwat_138.txt.gz
Precipitable_Water
0.45 0.42 0.41 0.41 0.41 0.41 0.41 0.41 0.42 0.43 0.44 0.46 0.46 0.47 0.50 0.50 0.49 0.48 0.47 0.47 0.54 0.60
0.46 0.44 0.41 0.42 0.43 0.44 0.44 0.44 0.45 0.45 0.45 0.47 0.49 0.48 0.48 0.48 0.47 0.48 0.47 0.47 0.47 0.51
0.47 0.45 0.43 0.43 0.44 0.45 0.46 0.47 0.47 0.46 0.48 0.49 0.47 0.47 0.46 0.45 0.47 0.46 0.46 0.46 0.46 0.48
0.46 0.44 0.42 0.42 0.45 0.47 0.48 0.49 0.48 0.47 0.48 0.48 0.46 0.45 0.45 0.45 0.44 0.44 0.44 0.45 0.44 0.46
0.43 0.38 0.34 0.34 0.37 0.42 0.44 0.46 0.44 0.45 0.46 0.47 0.46 0.46 0.44 0.45 0.44 0.43 0.42 0.42 0.42 0.43
0.36 0.31 0.30 0.28 0.30 0.32 0.34 0.34 0.33 0.34 0.33 0.36 0.38 0.41 0.44 0.45 0.42 0.42 0.42 0.41 0.41 0.41
0.29 0.29 0.27 0.28 0.29 0.28 0.30 0.29 0.28 0.28 0.27 0.26 0.27 0.30 0.35 0.40 0.43 0.41 0.42 0.42 0.42 0.42
0.29 0.27 0.26 0.27 0.27 0.26 0.25 0.24 0.24 0.25 0.25 0.23 0.23 0.25 0.27 0.30 0.33 0.38 0.41 0.42 0.43 0.44
0.28 0.26 0.25 0.26 0.24 0.24 0.23 0.23 0.21 0.21 0.21 0.22 0.26 0.24 0.24 0.24 0.24 0.24 0.30 0.38 0.44 0.48
0.28 0.25 0.24 0.24 0.23 0.22 0.21 0.20 0.18 0.20 0.22 0.21 0.22 0.23 0.24 0.22 0.21 0.21 0.22 0.24 0.32 0.43
0.27 0.23 0.22 0.22 0.24 0.22 0.23 0.23 0.21 0.21 0.19 0.19 0.21 0.20 0.22 0.23 0.20 0.21 0.21 0.21 0.22 0.24
0.25 0.23 0.23 0.23 0.24 0.23 0.22 0.24 0.22 0.20 0.19 0.18 0.19 0.19 0.19 0.20 0.20 0.18 0.18 0.19 0.21 0.20
0.27 0.24 0.23 0.26 0.24 0.23 0.23 0.24 0.23 0.21 0.19 0.19 0.17 0.19 0.20 0.19 0.20 0.17 0.16 0.17 0.18 0.19
0.28 0.28 0.26 0.24 0.24 0.24 0.26 0.23 0.22 0.22 0.21 0.18 0.18 0.17 0.20 0.20 0.19 0.19 0.16 0.16 0.16 0.17

GFSNIL_prec_pwat_141.txt.gz
Precipitable_Water
0.49 0.47 0.45 0.43 0.42 0.40 0.39 0.40 0.42 0.42 0.43 0.43 0.42 0.41 0.41 0.42 0.43 0.45 0.44 0.44 0.48 0.48
0.50 0.48 0.47 0.45 0.43 0.42 0.42 0.43 0.44 0.44 0.44 0.44 0.43 0.43 0.43 0.43 0.44 0.45 0.46 0.44 0.44 0.44
0.50 0.48 0.46 0.43 0.41 0.41 0.42 0.44 0.46 0.45 0.46 0.45 0.46 0.45 0.45 0.47 0.46 0.43 0.43 0.43 0.42 0.42
0.47 0.44 0.40 0.37 0.34 0.34 0.36 0.39 0.40 0.38 0.39 0.40 0.42 0.43 0.45 0.44 0.44 0.43 0.41 0.41 0.41 0.41
0.44 0.40 0.36 0.31 0.29 0.28 0.26 0.30 0.33 0.27 0.27 0.25 0.28 0.31 0.36 0.40 0.42 0.41 0.41 0.40 0.39 0.38
0.39 0.36 0.32 0.29 0.29 0.27 0.25 0.24 0.32 0.26 0.23 0.23 0.25 0.26 0.29 0.32 0.33 0.36 0.39 0.40 0.40 0.38
0.36 0.32 0.29 0.29 0.29 0.27 0.24 0.22 0.25 0.22 0.21 0.22 0.23 0.24 0.23 0.23 0.22 0.25 0.30 0.36 0.41 0.41
0.31 0.30 0.29 0.28 0.27 0.26 0.22 0.21 0.21 0.20 0.20 0.20 0.21 0.27 0.25 0.21 0.19 0.19 0.20 0.24 0.32 0.42
0.29 0.29 0.27 0.26 0.24 0.23 0.21 0.20 0.19 0.19 0.19 0.18 0.20 0.24 0.23 0.23 0.19 0.19 0.19 0.20 0.20 0.25
0.29 0.29 0.27 0.26 0.23 0.21 0.20 0.19 0.18 0.17 0.18 0.21 0.24 0.21 0.21 0.22 0.20 0.18 0.18 0.20 0.19 0.19
0.30 0.28 0.27 0.25 0.23 0.23 0.23 0.20 0.19 0.18 0.18 0.20 0.20 0.20 0.19 0.19 0.20 0.17 0.16 0.19 0.20 0.19
0.30 0.27 0.25 0.24 0.24 0.24 0.25 0.22 0.21 0.20 0.17 0.16 0.19 0.20 0.19 0.18 0.18 0.19 0.16 0.17 0.20 0.19
0.29 0.26 0.25 0.25 0.26 0.28 0.26 0.23 0.24 0.21 0.18 0.18 0.17 0.20 0.19 0.18 0.19 0.19 0.17 0.17 0.18 0.19
0.30 0.28 0.27 0.25 0.26 0.27 0.25 0.27 0.23 0.19 0.18 0.17 0.19 0.19 0.19 0.20 0.19 0.19 0.17 0.17 0.16 0.17

GFSNIL_prec_pwat_144.txt.gz
Precipitable_Water
0.49 0.48 0.47 0.46 0.45 0.42 0.41 0.40 0.41 0.42 0.41 0.41 0.41 0.42 0.43 0.43 0.41 0.41 0.39 0.39 0.39 0.38
0.52 0.49 0.47 0.45 0.43 0.41 0.40 0.39 0.39 0.41 0.40 0.41 0.41 0.43 0.43 0.41 0.42 0.42 0.40 0.39 0.39 0.39
0.51 0.48 0.44 0.41 0.37 0.35 0.34 0.32 0.32 0.33 0.31 0.33 0.35 0.37 0.40 0.40 0.41 0.41 0.41 0.41 0.41 0.40
0.50 0.45 0.42 0.37 0.34 0.30 0.28 0.26 0.23 0.24 0.23 0.24 0.26 0.28 0.30 0.31 0.34 0.36 0.39 0.42 0.41 0.40
0.48 0.44 0.40 0.36 0.32 0.27 0.26 0.25 0.21 0.22 0.25 0.24 0.23 0.24 0.24 0.24 0.26 0.26 0.28 0.35 0.41 0.42
0.44 0.42 0.37 0.33 0.27 0.26 0.25 0.24 0.21 0.21 0.23 0.22 0.23 0.22 0.19 0.19 0.20 0.21 0.23 0.25 0.29 0.37
0.42 0.40 0.35 0.30 0.27 0.24 0.23 0.22 0.21 0.20 0.21 0.23 0.21 0.19 0.19 0.21 0.22 0.20 0.20 0.22 0.24 0.26
0.40 0.36 0.31 0.29 0.27 0.23 0.22 0.21 0.20 0.20 0.19 0.20 0.22 0.19 0.17 0.20 0.20 0.22 0.19 0.19 0.19 0.23
0.34 0.32 0.30 0.28 0.26 0.23 0.21 0.20 0.19 0.19 0.20 0.19 0.21 0.21 0.19 0.20 0.17 0.20 0.18 0.16 0.18 0.19
0.33 0.31 0.30 0.28 0.26 0.24 0.20 0.19 0.19 0.18 0.19 0.20 0.20 0.21 0.21 0.19 0.17 0.18 0.18 0.17 0.18 0.17
0.32 0.30 0.31 0.29 0.26 0.25 0.22 0.20 0.18 0.18 0.19 0.22 0.22 0.21 0.20 0.18 0.17 0.16 0.18 0.18 0.18 0.18
0.32 0.30 0.28 0.26 0.26 0.25 0.25 0.23 0.21 0.19 0.18 0.19 0.20 0.21 0.19 0.18 0.17 0.16 0.17 0.19 0.19 0.20
0.31 0.28 0.26 0.27 0.27 0.28 0.26 0.23 0.22 0.20 0.21 0.20 0.19 0.21 0.22 0.20 0.18 0.16 0.16 0.19 0.18 0.19
0.29 0.29 0.30 0.30 0.28 0.26 0.25 0.23 0.22 0.18 0.17 0.18 0.20 0.22 0.23 0.22 0.18 0.16 0.16 0.16 0.15 0.16

GFSNIL_prec_pwat_150.txt.gz
Precipitable_Water
0.58 0.56 0.53 0.54 0.53 0.48 0.44 0.39 0.37 0.35 0.34 0.32 0.31 0.28 0.27 0.27 0.28 0.32 0.33 0.33 0.35 0.35
0.58 0.55 0.54 0.53 0.50 0.45 0.42 0.38 0.33 0.31 0.28 0.27 0.27 0.27 0.24 0.23 0.23 0.25 0.27 0.30 0.31 0.32
0.56 0.54 0.52 0.52 0.49 0.45 0.41 0.36 0.31 0.28 0.26 0.25 0.24 0.23 0.24 0.22 0.22 0.22 0.23 0.25 0.26 0.27
0.56 0.58 0.56 0.51 0.47 0.42 0.38 0.33 0.30 0.26 0.24 0.22 0.20 0.20 0.21 0.21 0.21 0.21 0.22 0.23 0.23 0.24
0.59 0.52 0.49 0.47 0.46 0.41 0.36 0.33 0.29 0.25 0.22 0.21 0.20 0.19 0.19 0.19 0.19 0.19 0.19 0.20 0.23 0.23
0.53 0.51 0.45 0.45 0.42 0.36 0.32 0.28 0.25 0.24 0.21 0.19 0.19 0.19 0.19 0.18 0.19 0.19 0.20 0.20 0.22 0.21
0.51 0.45 0.43 0.40 0.37 0.33 0.28 0.24 0.24 0.25 0.24 0.22 0.19 0.19 0.19 0.18 0.17 0.18 0.19 0.19 0.21 0.22
0.53 0.47 0.41 0.37 0.32 0.28 0.25 0.25 0.26 0.25 0.24 0.23 0.21 0.20 0.19 0.18 0.17 0.17 0.18 0.19 0.20 0.21
0.49 0.43 0.36 0.31 0.29 0.27 0.26 0.26 0.25 0.24 0.24 0.24 0.23 0.22 0.20 0.19 0.19 0.18 0.17 0.17 0.18 0.20
0.43 0.35 0.31 0.30 0.28 0.26 0.26 0.26 0.25 0.24 0.24 0.23 0.23 0.23 0.22 0.20 0.19 0.19 0.18 0.18 0.17 0.19
0.37 0.33 0.32 0.30 0.29 0.28 0.27 0.25 0.24 0.24 0.24 0.24 0.25 0.24 0.23 0.20 0.19 0.19 0.19 0.19 0.18 0.17
0.36 0.35 0.33 0.31 0.30 0.28 0.26 0.24 0.23 0.24 0.23 0.23 0.23 0.24 0.21 0.20 0.19 0.18 0.18 0.19 0.20 0.18
0.37 0.34 0.32 0.33 0.29 0.27 0.25 0.23 0.23 0.20 0.20 0.22 0.22 0.23 0.21 0.20 0.20 0.18 0.19 0.19 0.17 0.18
0.37 0.36 0.37 0.31 0.28 0.26 0.27 0.24 0.19 0.18 0.19 0.19 0.20 0.23 0.22 0.21 0.20 0.18 0.16 0.14 0.14 0.15

GFSNIL_prec_pwat_153.txt.gz
Precipitable_Water
0.59 0.58 0.57 0.56 0.53 0.51 0.47 0.43 0.42 0.41 0.38 0.35 0.32 0.29 0.29 0.27 0.25 0.26 0.26 0.27 0.30 0.31
0.57 0.56 0.54 0.53 0.52 0.48 0.46 0.42 0.41 0.39 0.36 0.34 0.29 0.26 0.25 0.26 0.26 0.25 0.25 0.25 0.26 0.27
0.58 0.57 0.54 0.52 0.49 0.47 0.46 0.42 0.38 0.35 0.33 0.29 0.25 0.24 0.23 0.23 0.25 0.24 0.24 0.24 0.24 0.25
0.57 0.54 0.52 0.54 0.49 0.45 0.43 0.40 0.37 0.34 0.30 0.25 0.23 0.22 0.21 0.20 0.20 0.21 0.21 0.22 0.23 0.22
0.56 0.58 0.51 0.47 0.46 0.43 0.38 0.36 0.33 0.28 0.25 0.22 0.21 0.21 0.20 0.19 0.19 0.19 0.19 0.20 0.20 0.21
0.56 0.51 0.49 0.47 0.42 0.39 0.35 0.33 0.30 0.26 0.21 0.21 0.21 0.21 0.20 0.20 0.19 0.19 0.19 0.20 0.20 0.19
0.54 0.52 0.49 0.47 0.44 0.37 0.33 0.29 0.27 0.26 0.24 0.23 0.22 0.22 0.22 0.21 0.20 0.19 0.20 0.20 0.21 0.20
0.56 0.53 0.47 0.43 0.41 0.35 0.30 0.28 0.27 0.27 0.26 0.25 0.24 0.23 0.23 0.22 0.21 0.20 0.20 0.19 0.19 0.20
0.53 0.50 0.44 0.40 0.36 0.31 0.28 0.27 0.27 0.27 0.27 0.26 0.25 0.24 0.23 0.22 0.22 0.21 0.20 0.19 0.20 0.20
0.52 0.47 0.41 0.36 0.33 0.29 0.28 0.28 0.27 0.26 0.26 0.25 0.26 0.25 0.23 0.22 0.23 0.22 0.21 0.20 0.19 0.19
0.51 0.44 0.38 0.33 0.29 0.29 0.28 0.27 0.26 0.26 0.26 0.26 0.26 0.25 0.22 0.20 0.20 0.20 0.21 0.21 0.20 0.18
0.49 0.41 0.36 0.30 0.30 0.29 0.28 0.27 0.26 0.25 0.25 0.25 0.24 0.23 0.20 0.19 0.19 0.19 0.19 0.20 0.21 0.21
0.46 0.39 0.33 0.31 0.30 0.31 0.29 0.26 0.25 0.23 0.24 0.23 0.23 0.22 0.20 0.18 0.19 0.18 0.19 0.19 0.19 0.19
0.40 0.37 0.33 0.33 0.34 0.30 0.27 0.26 0.24 0.22 0.20 0.22 0.22 0.21 0.19 0.19 0.19 0.19 0.18 0.17 0.16 0.16

GFSNIL_prec_pwat_156.txt.gz
Precipitable_Water
0.63 0.58 0.56 0.55 0.55 0.54 0.51 0.49 0.49 0.46 0.45 0.42 0.37 0.34 0.33 0.31 0.30 0.32 0.31 0.30 0.30 0.29
0.62 0.61 0.59 0.57 0.55 0.52 0.48 0.46 0.47 0.46 0.44 0.39 0.34 0.32 0.30 0.29 0.28 0.29 0.29 0.29 0.29 0.28
0.63 0.60 0.58 0.56 0.52 0.49 0.48 0.47 0.45 0.41 0.36 0.33 0.31 0.28 0.26 0.24 0.26 0.25 0.26 0.27 0.26 0.26
0.64 0.61 0.58 0.53 0.51 0.49 0.45 0.43 0.42 0.37 0.32 0.29 0.26 0.24 0.23 0.21 0.22 0.21 0.22 0.23 0.24 0.23
0.64 0.61 0.60 0.55 0.48 0.46 0.44 0.42 0.38 0.34 0.31 0.28 0.25 0.23 0.22 0.22 0.22 0.21 0.21 0.22 0.22 0.22
0.62 0.60 0.54 0.50 0.47 0.46 0.43 0.41 0.38 0.33 0.28 0.25 0.24 0.23 0.24 0.24 0.23 0.23 0.23 0.23 0.23 0.22
0.61 0.57 0.55 0.50 0.48 0.45 0.40 0.37 0.36 0.32 0.28 0.24 0.24 0.25 0.24 0.24 0.24 0.24 0.24 0.24 0.24 0.23
0.61 0.59 0.56 0.50 0.45 0.42 0.38 0.35 0.32 0.30 0.27 0.27 0.27 0.25 0.25 0.24 0.24 0.23 0.23 0.23 0.23 0.23
0.61 0.58 0.54 0.50 0.43 0.38 0.35 0.33 0.31 0.29 0.29 0.28 0.26 0.24 0.23 0.25 0.24 0.24 0.23 0.22 0.23 0.23
0.59 0.57 0.51 0.46 0.42 0.38 0.34 0.33 0.29 0.29 0.29 0.28 0.27 0.24 0.23 0.24 0.25 0.23 0.22 0.21 0.22 0.22
0.56 0.53 0.49 0.43 0.37 0.36 0.35 0.31 0.30 0.29 0.29 0.28 0.26 0.25 0.23 0.22 0.23 0.21 0.21 0.22 0.21 0.21
0.55 0.52 0.46 0.39 0.38 0.38 0.34 0.31 0.30 0.29 0.28 0.27 0.26 0.23 0.21 0.23 0.22 0.20 0.20 0.22 0.22 0.21
0.53 0.50 0.45 0.40 0.37 0.35 0.33 0.32 0.30 0.28 0.27 0.27 0.25 0.22 0.20 0.21 0.21 0.20 0.21 0.21 0.21 0.19
0.52 0.49 0.42 0.38 0.36 0.34 0.35 0.31 0.29 0.27 0.28 0.27 0.24 0.22 0.19 0.19 0.21 0.20 0.20 0.21 0.20 0.18

GFSNIL_prec_pwat_159.txt.gz
Precipitable_Water
0.67 0.65 0.64 0.65 0.64 0.58 0.55 0.55 0.56 0.55 0.51 0.47 0.46 0.44 0.42 0.39 0.34 0.34 0.33 0.33 0.33 0.32
0.66 0.64 0.62 0.62 0.61 0.59 0.57 0.55 0.53 0.50 0.49 0.44 0.41 0.38 0.35 0.33 0.31 0.30 0.29 0.29 0.29 0.28
0.67 0.69 0.67 0.62 0.61 0.59 0.55 0.52 0.50 0.47 0.44 0.41 0.38 0.34 0.31 0.28 0.27 0.26 0.26 0.25 0.26 0.25
0.70 0.69 0.65 0.63 0.62 0.59 0.57 0.51 0.47 0.44 0.40 0.36 0.34 0.32 0.29 0.25 0.26 0.26 0.26 0.26 0.26 0.24
0.70 0.69 0.65 0.64 0.62 0.59 0.51 0.49 0.45 0.41 0.38 0.37 0.35 0.30 0.27 0.25 0.26 0.25 0.25 0.26 0.26 0.25
0.71 0.71 0.66 0.64 0.60 0.54 0.49 0.46 0.42 0.40 0.37 0.34 0.31 0.29 0.27 0.25 0.24 0.25 0.25 0.26 0.27 0.25
0.73 0.66 0.63 0.61 0.56 0.53 0.50 0.46 0.43 0.39 0.35 0.31 0.28 0.27 0.26 0.26 0.26 0.26 0.26 0.27 0.27 0.25
0.69 0.62 0.63 0.61 0.57 0.52 0.48 0.46 0.42 0.37 0.35 0.32 0.29 0.28 0.29 0.26 0.25 0.25 0.25 0.25 0.25 0.25
0.65 0.69 0.62 0.60 0.55 0.49 0.46 0.46 0.42 0.39 0.34 0.31 0.27 0.26 0.26 0.27 0.26 0.26 0.25 0.24 0.25 0.25
0.65 0.61 0.62 0.59 0.54 0.49 0.45 0.45 0.39 0.36 0.36 0.34 0.29 0.25 0.24 0.27 0.28 0.26 0.24 0.22 0.22 0.23
0.61 0.61 0.58 0.55 0.51 0.47 0.45 0.43 0.38 0.36 0.35 0.32 0.28 0.25 0.23 0.26 0.26 0.24 0.23 0.22 0.21 0.22
0.58 0.57 0.53 0.53 0.48 0.46 0.41 0.38 0.38 0.36 0.33 0.32 0.28 0.24 0.23 0.26 0.25 0.23 0.22 0.21 0.20 0.21
0.56 0.53 0.52 0.48 0.45 0.43 0.43 0.40 0.36 0.34 0.33 0.32 0.27 0.23 0.23 0.25 0.24 0.22 0.22 0.22 0.23 0.19
0.53 0.53 0.52 0.49 0.48 0.45 0.40 0.37 0.36 0.33 0.31 0.31 0.28 0.25 0.21 0.22 0.24 0.24 0.23 0.22 0.22 0.21

GFSNIL_prec_pwat_162.txt.gz
Precipitable_Water
0.80 0.76 0.73 0.69 0.64 0.60 0.60 0.63 0.63 0.59 0.58 0.58 0.54 0.50 0.45 0.42 0.39 0.37 0.34 0.32 0.30 0.29
0.77 0.73 0.67 0.64 0.61 0.61 0.64 0.62 0.63 0.61 0.57 0.54 0.50 0.44 0.42 0.38 0.35 0.33 0.29 0.30 0.27 0.27
0.71 0.67 0.63 0.62 0.63 0.64 0.63 0.64 0.60 0.58 0.54 0.49 0.44 0.40 0.37 0.35 0.32 0.30 0.29 0.29 0.29 0.27
0.68 0.64 0.62 0.66 0.74 0.65 0.64 0.62 0.60 0.56 0.50 0.45 0.41 0.39 0.36 0.31 0.30 0.29 0.29 0.28 0.27 0.25
0.62 0.63 0.68 0.72 0.65 0.67 0.63 0.62 0.57 0.51 0.46 0.42 0.38 0.36 0.32 0.29 0.28 0.27 0.26 0.27 0.27 0.25
0.71 0.78 0.71 0.70 0.68 0.70 0.63 0.58 0.54 0.48 0.44 0.41 0.37 0.34 0.31 0.29 0.27 0.27 0.27 0.27 0.26 0.23
0.77 0.74 0.74 0.75 0.71 0.63 0.59 0.55 0.53 0.47 0.42 0.39 0.36 0.33 0.30 0.29 0.29 0.28 0.27 0.26 0.25 0.23
0.74 0.74 0.74 0.71 0.65 0.62 0.64 0.57 0.53 0.46 0.43 0.42 0.38 0.34 0.33 0.31 0.30 0.29 0.28 0.27 0.26 0.26
0.69 0.70 0.69 0.67 0.67 0.63 0.55 0.52 0.54 0.47 0.42 0.40 0.34 0.33 0.34 0.32 0.30 0.28 0.26 0.25 0.26 0.26
0.66 0.67 0.67 0.66 0.62 0.57 0.57 0.57 0.49 0.46 0.44 0.38 0.33 0.32 0.32 0.32 0.29 0.26 0.25 0.23 0.23 0.23
0.65 0.63 0.63 0.62 0.60 0.57 0.57 0.52 0.46 0.43 0.42 0.36 0.32 0.30 0.30 0.29 0.26 0.26 0.25 0.23 0.23 0.21
0.63 0.60 0.59 0.57 0.56 0.55 0.51 0.49 0.45 0.41 0.38 0.35 0.31 0.29 0.29 0.28 0.27 0.25 0.23 0.22 0.20 0.20
0.59 0.57 0.55 0.54 0.54 0.52 0.49 0.44 0.41 0.39 0.41 0.36 0.31 0.28 0.28 0.28 0.28 0.24 0.23 0.24 0.22 0.19
0.53 0.52 0.53 0.51 0.51 0.50 0.47 0.44 0.43 0.40 0.38 0.36 0.31 0.26 0.25 0.27 0.27 0.24 0.26 0.25 0.21 0.17

GFSNIL_prec_pwat_165.txt.gz
Precipitable_Water
0.82 0.79 0.77 0.78 0.76 0.70 0.64 0.61 0.60 0.61 0.62 0.61 0.61 0.60 0.58 0.52 0.47 0.44 0.39 0.34 0.32 0.32
0.78 0.76 0.76 0.77 0.74 0.66 0.62 0.60 0.62 0.64 0.63 0.60 0.59 0.59 0.54 0.49 0.45 0.40 0.37 0.33 0.30 0.29
0.78 0.77 0.76 0.75 0.67 0.62 0.60 0.62 0.65 0.63 0.61 0.60 0.57 0.54 0.49 0.43 0.42 0.37 0.34 0.31 0.28 0.27
0.77 0.77 0.76 0.70 0.62 0.59 0.59 0.68 0.64 0.64 0.60 0.56 0.53 0.49 0.44 0.40 0.38 0.34 0.31 0.30 0.28 0.26
0.76 0.74 0.68 0.60 0.58 0.63 0.68 0.70 0.66 0.61 0.55 0.52 0.49 0.45 0.40 0.37 0.35 0.31 0.29 0.29 0.27 0.25
0.71 0.66 0.60 0.57 0.65 0.75 0.75 0.72 0.67 0.58 0.53 0.51 0.47 0.42 0.39 0.36 0.33 0.31 0.30 0.28 0.26 0.23
0.64 0.63 0.68 0.74 0.76 0.74 0.74 0.68 0.58 0.56 0.54 0.50 0.45 0.42 0.40 0.37 0.33 0.32 0.31 0.29 0.26 0.24
0.75 0.78 0.77 0.74 0.74 0.72 0.69 0.64 0.58 0.59 0.53 0.49 0.45 0.41 0.38 0.37 0.34 0.32 0.30 0.29 0.27 0.25
0.71 0.72 0.71 0.70 0.70 0.68 0.66 0.66 0.61 0.56 0.49 0.49 0.42 0.42 0.39 0.36 0.34 0.32 0.30 0.27 0.26 0.24
0.68 0.66 0.67 0.68 0.66 0.64 0.62 0.60 0.58 0.57 0.54 0.43 0.43 0.40 0.38 0.35 0.34 0.31 0.28 0.26 0.25 0.22
0.64 0.63 0.63 0.64 0.59 0.59 0.59 0.58 0.55 0.54 0.49 0.44 0.39 0.38 0.37 0.36 0.32 0.28 0.25 0.24 0.21 0.20
0.60 0.59 0.58 0.57 0.56 0.56 0.56 0.54 0.54 0.52 0.48 0.43 0.35 0.36 0.36 0.32 0.29 0.25 0.23 0.22 0.21 0.19
0.57 0.57 0.56 0.56 0.55 0.55 0.55 0.52 0.52 0.48 0.44 0.37 0.35 0.34 0.34 0.32 0.28 0.24 0.23 0.22 0.21 0.21
0.54 0.53 0.53 0.52 0.52 0.50 0.49 0.48 0.47 0.46 0.40 0.40 0.36 0.31 0.33 0.32 0.28 0.26 0.23 0.21 0.21 0.20

GFSNIL_prec_pwat_168.txt.gz
Precipitable_Water
0.84 0.83 0.81 0.78 0.75 0.74 0.72 0.70 0.68 0.63 0.60 0.60 0.62 0.63 0.62 0.60 0.57 0.55 0.53 0.46 0.41 0.38
0.83 0.81 0.79 0.78 0.77 0.76 0.75 0.70 0.64 0.60 0.57 0.59 0.63 0.63 0.61 0.58 0.55 0.53 0.46 0.43 0.42 0.37
0.84 0.82 0.80 0.78 0.76 0.76 0.74 0.68 0.60 0.56 0.57 0.59 0.62 0.63 0.62 0.56 0.52 0.49 0.46 0.41 0.36 0.34
0.82 0.80 0.80 0.79 0.77 0.76 0.73 0.65 0.57 0.55 0.58 0.62 0.66 0.62 0.55 0.53 0.50 0.45 0.40 0.36 0.33 0.31
0.80 0.79 0.77 0.76 0.75 0.75 0.70 0.61 0.55 0.60 0.68 0.68 0.60 0.54 0.52 0.48 0.46 0.41 0.36 0.34 0.31 0.29
0.76 0.75 0.75 0.74 0.72 0.69 0.62 0.60 0.63 0.67 0.70 0.61 0.55 0.51 0.48 0.47 0.43 0.38 0.35 0.32 0.30 0.28
0.72 0.72 0.72 0.70 0.65 0.62 0.64 0.69 0.72 0.71 0.68 0.60 0.59 0.52 0.46 0.44 0.41 0.38 0.35 0.33 0.30 0.27
0.65 0.66 0.65 0.65 0.67 0.72 0.72 0.71 0.69 0.68 0.66 0.62 0.58 0.50 0.45 0.43 0.40 0.36 0.33 0.33 0.30 0.28
0.65 0.64 0.65 0.67 0.69 0.70 0.69 0.67 0.65 0.63 0.62 0.59 0.51 0.50 0.44 0.42 0.38 0.35 0.34 0.31 0.29 0.29
0.61 0.62 0.65 0.66 0.66 0.64 0.62 0.63 0.60 0.59 0.57 0.55 0.55 0.50 0.47 0.42 0.37 0.35 0.34 0.31 0.28 0.25
0.58 0.58 0.61 0.61 0.60 0.59 0.57 0.57 0.56 0.56 0.54 0.53 0.53 0.50 0.44 0.39 0.36 0.35 0.31 0.28 0.26 0.23
0.51 0.51 0.54 0.56 0.57 0.58 0.57 0.55 0.54 0.54 0.52 0.51 0.50 0.48 0.42 0.38 0.36 0.31 0.28 0.26 0.23 0.21
0.48 0.47 0.47 0.49 0.50 0.52 0.52 0.52 0.53 0.51 0.51 0.49 0.47 0.44 0.39 0.37 0.32 0.28 0.26 0.24 0.22 0.21
0.47 0.47 0.48 0.48 0.50 0.50 0.49 0.48 0.47 0.47 0.47 0.46 0.43 0.42 0.42 0.33 0.29 0.27 0.24 0.23 0.22 0.21

GFSNIL_prec_pwat_171.txt.gz
Precipitable_Water
1.06 0.97 0.93 0.90 0.89 0.85 0.77 0.73 0.71 0.67 0.65 0.63 0.63 0.63 0.63 0.60 0.61 0.60 0.55 0.52 0.51 0.49
0.98 0.95 0.89 0.88 0.86 0.81 0.79 0.76 0.72 0.67 0.64 0.62 0.60 0.59 0.59 0.60 0.59 0.56 0.54 0.55 0.51 0.45
0.94 0.92 0.92 0.89 0.84 0.81 0.79 0.77 0.73 0.69 0.64 0.60 0.59 0.58 0.59 0.59 0.60 0.60 0.57 0.50 0.46 0.44
0.91 0.90 0.88 0.86 0.83 0.80 0.78 0.76 0.74 0.70 0.63 0.57 0.56 0.56 0.62 0.65 0.61 0.55 0.51 0.47 0.43 0.39
0.86 0.85 0.82 0.79 0.77 0.77 0.75 0.75 0.73 0.69 0.61 0.57 0.56 0.63 0.67 0.62 0.54 0.52 0.48 0.44 0.40 0.36
0.74 0.73 0.73 0.74 0.74 0.73 0.72 0.70 0.72 0.68 0.61 0.59 0.66 0.66 0.64 0.56 0.53 0.47 0.44 0.40 0.35 0.32
0.67 0.66 0.65 0.66 0.66 0.67 0.70 0.67 0.62 0.60 0.61 0.67 0.67 0.63 0.62 0.56 0.48 0.46 0.42 0.37 0.34 0.31
0.60 0.61 0.59 0.59 0.58 0.59 0.61 0.61 0.63 0.66 0.67 0.66 0.64 0.62 0.61 0.54 0.45 0.41 0.38 0.37 0.35 0.33
0.57 0.58 0.58 0.59 0.59 0.58 0.59 0.63 0.64 0.65 0.63 0.61 0.60 0.60 0.59 0.51 0.45 0.42 0.38 0.35 0.33 0.32
0.56 0.57 0.58 0.57 0.57 0.58 0.60 0.62 0.58 0.57 0.59 0.58 0.58 0.58 0.57 0.52 0.48 0.43 0.36 0.34 0.32 0.30
0.50 0.50 0.49 0.49 0.50 0.53 0.55 0.55 0.56 0.54 0.55 0.56 0.56 0.56 0.55 0.54 0.47 0.41 0.38 0.34 0.31 0.27
0.46 0.44 0.44 0.44 0.47 0.49 0.50 0.49 0.50 0.52 0.51 0.51 0.53 0.54 0.52 0.49 0.43 0.41 0.39 0.32 0.28 0.25
0.44 0.44 0.42 0.43 0.44 0.46 0.46 0.46 0.46 0.46 0.48 0.49 0.50 0.51 0.50 0.45 0.41 0.38 0.32 0.27 0.26 0.24
0.42 0.43 0.44 0.44 0.44 0.44 0.45 0.45 0.44 0.45 0.46 0.46 0.47 0.48 0.46 0.44 0.42 0.34 0.28 0.26 0.23 0.22